DELTA 2 R/B(1)

基本信息
目录编号:
34382
目录名称:
DELTA 2 R/B(1)
国际标识:
2009-011C
轨道中心:
EARTH
物体状态:
在轨
发射日期:
2009-03-07 UTC
国别:
美国 (US)
轨道信息
数据来源: 国际轨道数据
星历时间: 2026-07-13T08:39:14+0800
半长轴: 11180.927km
偏心率: 0.2276471
轨道倾角: 28.557°
近地点辐角: 163.397°
升交点赤经: 18.183°
平近点角: 12.270°
近地点: 2257.484km
远地点: 7348.096km
周期: 196.099分钟
每日圈数: 7.343212
详细信息
发射场:
AFETR
轨道高度:
MEO
数据来源:
AOE Integration Group
参考系:
TEME
时间系统:
UTC
历元类型:
SGP4
2D轨道图
3D轨道图
轨道高度分析图
轨道倾角分析图
轨道综合分析图
查看轨道综合分析图